Location: Unspecified
(51.5147°N, 7.4673°E)
Time: 10:05:13
(UTC+01:00)

Vanguard 2 - Pass Details

Date: 24 February 2026
Orbit: 553 x 2896 km, 32.9° (Epoch: 7 March)

Event Time Altitude Azimuth Distance (km) Brightness Sun altitude
Rises 04:26:15 0° 223° (SW) 4,866 - -28.3°
Reaches altitude 10° 04:32:11 10° 198° (SSW) 3,274 - -27.5°
Exits shadow 04:34:57 13° 178° (S) 2,802 10.2 -27.1°
Maximum altitude 04:35:13 13° 176° (S) 2,773 10.2 -27.0°
Drops below altitude 10° 04:37:49 10° 152° (SSE) 2,700 10.4 -26.7°
Sets 04:41:39 0° 122° (ESE) 3,273 11.3 -26.1°
